Miscellaneous Local Product
Issued by NWS North Platte, NE

Home | Current Version | Previous Version | Text Only | Print | Product List | Glossary On
Versions: 1 2 3 4 5 6 7 8 9 10 11 12 13 14 15 16 17 18 19 20 21 22 23 24 25 26 27 28 29 30 31 32 33 34 35 36 37 38 39 40 41 42 43 44 45 46 47 48 49 50
281
AXUS43 KLBF 291810
MISLBF


WESTERN AND NORTH CENTRAL NEBRASKA HOURLY WEATHER ROUNDUP
NATIONAL WEATHER SERVICE NORTH PLATTE NE
100 PM CDT WED MAR 29 2017

NOTE: "FAIR" INDICATES FEW OR NO CLOUDS BELOW 12,000 FEET WITH NO
SIGNIFICANT WEATHER AND/OR OBSTRUCTIONS TO VISIBILITY.

NOTE: STATIONS NOT REPORTING VARIABLES SUCH AS SKY/WEATHER OR
PRESSURE ARE PROVIDED BY RAWS AND APRS NETWORKS AND ARE NOT UNDER
NATIONAL WEATHER SERVICE QUALITY CONTROL.

...OBSERVATIONS IN AND NEAR THE EASTERN PANHANDLE OF NEBRASKA...

CITY           SKY/WX    TMP DP  RH WIND       PRES   REMARKS
PINE RIDGE     CLOUDY    50  40  68 CALM      30.08F
CHADRON        CLOUDY    48  40  73 CALM      30.08F
ALLIANCE       CLOUDY    47  39  74 N12       30.06F
SIDNEY         CLOUDY    45  38  76 N18       30.06F
CRESCENT LAKE    N/A     43  41  93 NE9         N/A
$$

...OBSERVATIONS IN NORTHERN NEBRASKA AND FAR SOUTHERN SOUTH DAKOTA...

CITY           SKY/WX    TMP DP  RH WIND       PRES   REMARKS
WINNER         PTSUNNY   54  43  66 E9        30.08F
VALENTINE      CLOUDY    51  39  63 NE14      30.07F
THEDFORD       CLOUDY    48  42  78 N16G22    30.04F
AINSWORTH      CLOUDY    47  44  89 NE10G17   30.05F
O`NEILL        CLOUDY    45  43  93 NE13      30.06F
ORD            LGT RAIN  44  40  85 NE18      29.99F FOG
BROKEN BOW     CLOUDY    45  39  79 N16G28    29.99F
VALENTINE NWR    N/A     47  42  84 NE9G17      N/A
HALSEY           N/A     44  42  92 N8          N/A
BUTTE            N/A     45  40  83 NE16G23     N/A
CHAMBERS         N/A     46  44  92 E3G12       N/A
EWING            N/A     44  42  92 NE8G20      N/A
$$

...OBSERVATIONS IN SOUTHWEST NEBRASKA AND FAR NORTHEAST COLORADO...

CITY           SKY/WX    TMP DP  RH WIND       PRES   REMARKS
WRAY           CLOUDY    43  39  87 N20G26    30.02
HOLYOKE        CLOUDY    43  41  93 N13       30.04F
IMPERIAL       CLOUDY    46  39  76 N20G28    30.00F
OGALLALA       CLOUDY    47  41  80 N15       30.04F
NORTH PLATTE   CLOUDY    46  40  79 N18G26    30.00F
MCCOOK         CLOUDY    45  42  89 N23       29.94F
LEXINGTON      LGT RAIN  44  41  90 N18G25    29.96F
STAPLETON        N/A     44  41  89 N3          N/A
GOTHENBURG       N/A     44  39  82 N14         N/A
CALLAWAY         N/A     42  40  94 NE16        N/A
$$

...OBSERVATIONS IN CENTRAL LINCOLN COUNTY AREA...

CITY           SKY/WX    TMP DP  RH WIND       PRES   REMARKS
N.P. AIRPORT   CLOUDY    46  40  79 N18G26    30.00F
N.P. DOWNTOWN    N/A     44  40  86 N12G20      N/A
N.P. SOUTHEAST   N/A     45  40  83 N8G20       N/A
N.P. HILLCREST   N/A     44  40  87 NE20G26     N/A
$$

...SOME OBSERVATIONS FROM AROUND THE REGION...

CITY           SKY/WX    TMP DP  RH WIND       PRES   REMARKS
DENVER         PTSUNNY   45  37  73 N15       30.07F
LIMON          CLOUDY    37  36  96 N23G33    30.03F WCI  26
ASPEN          MOSUNNY   43  24  47 NW5       30.13F
LARAMIE        PTSUNNY   41  29  62 W10       30.11F
CASPER         SUNNY     50  32  50 SW9G18    30.10F
CHEYENNE       PTSUNNY   45  29  53 N14G23    30.08F
SCOTTSBLUFF    CLOUDY    49  37  63 N8        30.08F
GRAND ISLAND   LGT RAIN  43  43 100 NE18G31   29.94F FOG
OMAHA          RAIN      44  39  82 NE20G30   29.92F
SIOUX FALLS    LGT RAIN  47  41  80 E18       30.12F
PIERRE         MOSUNNY   56  36  47 E6        30.07F
RAPID CITY     PTSUNNY   51  42  71 VRB6      30.08F
BISMARCK       MOSUNNY   60  40  47 S10       30.07F
KANSAS CITY    CLOUDY    50  49  96 E21       29.74F
HILL CITY      LGT RAIN  45  43  93 N24G35    29.88F FOG
WICHITA        LGT RAIN  56  55  97 SE3       29.61S FOG
DODGE CITY     RAIN      43  40  89 N28G40    29.78S FOG
OKLAHOMA CITY  CLOUDY    55  52  89 SW7       29.70R
DALLAS         MOSUNNY   78  47  33 SW23G30   29.71F
AMARILLO       LGT RAIN  41  39  93 N22G36    29.88R
$$




USA.gov is the U.S. government's official web portal to all federal, state and local government web resources and services.